TimeMST,TemperatureF,Dew PointF,Humidity,Sea Level PressureIn,VisibilityMPH,Wind Direction,Wind SpeedMPH,Gust SpeedMPH,PrecipitationIn,Events,Conditions,WindDirDegrees,DateUTC
12:15 AM,23.0,19.4,86,30.32,10.0,Calm,Calm,-,N/A,,Mostly Cloudy,0,2014-01-23 07:15:00
12:35 AM,24.8,21.2,86,30.33,9.0,Calm,Calm,-,N/A,,Overcast,0,2014-01-23 07:35:00
12:55 AM,24.8,19.4,80,30.34,10.0,Calm,Calm,-,N/A,,Overcast,0,2014-01-23 07:55:00
1:15 AM,24.8,21.2,86,30.35,10.0,Calm,Calm,-,N/A,,Overcast,0,2014-01-23 08:15:00
1:35 AM,24.8,19.4,80,30.35,10.0,Calm,Calm,-,N/A,,Overcast,0,2014-01-23 08:35:00
1:55 AM,24.8,21.2,86,30.36,10.0,Calm,Calm,-,N/A,,Overcast,0,2014-01-23 08:55:00
2:15 AM,23.0,21.2,93,30.37,10.0,Calm,Calm,-,N/A,,Overcast,0,2014-01-23 09:15:00
2:35 AM,23.0,19.4,86,30.37,10.0,Calm,Calm,-,N/A,,Scattered Clouds,0,2014-01-23 09:35:00
2:55 AM,21.2,19.4,93,30.37,9.0,SSE,3.5,-,N/A,,Partly Cloudy,150,2014-01-23 09:55:00
3:15 AM,19.4,15.8,86,30.38,10.0,East,3.5,-,N/A,,Clear,100,2014-01-23 10:15:00
3:35 AM,21.2,17.6,86,30.39,10.0,Calm,Calm,-,N/A,,Clear,0,2014-01-23 10:35:00
3:55 AM,19.4,15.8,86,30.40,10.0,Calm,Calm,-,N/A,,Clear,0,2014-01-23 10:55:00
4:15 AM,19.4,17.6,93,30.40,10.0,Calm,Calm,-,N/A,,Clear,0,2014-01-23 11:15:00
4:35 AM,17.6,14.0,86,30.41,10.0,Calm,Calm,-,N/A,,Clear,0,2014-01-23 11:35:00
4:55 AM,19.4,17.6,93,30.42,10.0,Calm,Calm,-,N/A,,Clear,0,2014-01-23 11:55:00
5:15 AM,17.6,15.8,93,30.42,10.0,Calm,Calm,-,N/A,,Clear,0,2014-01-23 12:15:00
5:35 AM,17.6,15.8,93,30.43,10.0,SSE,4.6,-,N/A,,Clear,160,2014-01-23 12:35:00
5:55 AM,15.8,14.0,93,30.43,10.0,Calm,Calm,-,N/A,,Clear,0,2014-01-23 12:55:00
6:15 AM,15.8,12.2,86,30.44,10.0,Calm,Calm,-,N/A,,Clear,0,2014-01-23 13:15:00
6:35 AM,15.8,12.2,86,30.45,10.0,Calm,Calm,-,N/A,,Clear,0,2014-01-23 13:35:00
6:55 AM,14.0,14.0,100,30.46,9.0,Calm,Calm,-,N/A,,Clear,0,2014-01-23 13:55:00
7:15 AM,14.0,10.4,86,30.47,10.0,South,3.5,-,N/A,,Clear,180,2014-01-23 14:15:00
7:35 AM,15.8,14.0,93,30.46,10.0,South,3.5,-,N/A,,Clear,180,2014-01-23 14:35:00
7:55 AM,14.0,12.2,93,30.47,10.0,Calm,Calm,-,N/A,,Clear,0,2014-01-23 14:55:00
8:15 AM,14.0,10.4,86,30.47,10.0,Calm,Calm,-,N/A,,Clear,0,2014-01-23 15:15:00
8:35 AM,12.2,10.4,92,30.48,8.0,Calm,Calm,-,N/A,,Clear,0,2014-01-23 15:35:00
8:55 AM,14.0,12.2,93,30.49,5.0,Calm,Calm,-,N/A,,Clear,0,2014-01-23 15:55:00
9:15 AM,15.8,14.0,93,30.49,9.0,Calm,Calm,-,N/A,,Clear,0,2014-01-23 16:15:00
9:35 AM,19.4,15.8,86,30.49,10.0,Calm,Calm,-,N/A,,Clear,0,2014-01-23 16:35:00
9:55 AM,19.4,19.4,100,30.50,10.0,West,3.5,-,N/A,,Clear,270,2014-01-23 16:55:00
10:15 AM,21.2,19.4,93,30.50,10.0,Calm,Calm,-,N/A,,Clear,0,2014-01-23 17:15:00
10:35 AM,23.0,19.4,86,30.51,10.0,Calm,Calm,-,N/A,,Clear,0,2014-01-23 17:35:00
10:55 AM,24.8,19.4,80,30.52,10.0,Calm,Calm,-,N/A,,Clear,0,2014-01-23 17:55:00
11:15 AM,26.6,19.4,74,30.52,10.0,Calm,Calm,-,N/A,,Clear,0,2014-01-23 18:15:00
11:35 AM,28.4,19.4,69,30.51,10.0,Calm,Calm,-,N/A,,Clear,0,2014-01-23 18:35:00
11:55 AM,28.4,19.4,69,30.51,10.0,North,4.6,-,N/A,,Clear,350,2014-01-23 18:55:00
12:15 PM,30.2,21.2,69,30.50,10.0,Calm,Calm,-,N/A,,Clear,0,2014-01-23 19:15:00
12:35 PM,30.2,19.4,64,30.49,10.0,Calm,Calm,-,N/A,,Clear,0,2014-01-23 19:35:00
12:55 PM,32.0,21.2,64,30.49,10.0,NNE,5.8,-,N/A,,Clear,20,2014-01-23 19:55:00
1:15 PM,33.8,21.2,60,30.48,10.0,North,5.8,-,N/A,,Clear,10,2014-01-23 20:15:00
1:35 PM,33.8,21.2,60,30.47,10.0,North,5.8,-,N/A,,Clear,360,2014-01-23 20:35:00
1:55 PM,33.8,21.2,60,30.47,10.0,North,3.5,-,N/A,,Clear,350,2014-01-23 20:55:00
2:15 PM,35.6,19.4,52,30.46,10.0,Calm,Calm,-,N/A,,Clear,0,2014-01-23 21:15:00
2:35 PM,35.6,21.2,56,30.45,10.0,Calm,Calm,-,N/A,,Clear,0,2014-01-23 21:35:00
2:55 PM,37.4,21.2,52,30.44,10.0,Calm,Calm,-,N/A,,Clear,0,2014-01-23 21:55:00
3:15 PM,37.4,21.2,52,30.44,10.0,Calm,Calm,-,N/A,,Clear,0,2014-01-23 22:15:00
3:35 PM,37.4,21.2,52,30.44,10.0,Calm,Calm,-,N/A,,Clear,0,2014-01-23 22:35:00
3:55 PM,37.4,21.2,52,30.43,10.0,NNW,3.5,-,N/A,,Clear,330,2014-01-23 22:55:00
4:15 PM,37.4,21.2,52,30.44,10.0,Calm,Calm,-,N/A,,Clear,0,2014-01-23 23:15:00
4:35 PM,37.4,21.2,52,30.44,10.0,WSW,3.5,-,N/A,,Clear,240,2014-01-23 23:35:00
4:55 PM,35.6,21.2,56,30.44,10.0,Calm,Calm,-,N/A,,Clear,0,2014-01-23 23:55:00
5:15 PM,32.0,21.2,64,30.44,10.0,Calm,Calm,-,N/A,,Clear,0,2014-01-24 00:15:00
5:35 PM,30.2,19.4,64,30.45,10.0,SE,3.5,-,N/A,,Clear,140,2014-01-24 00:35:00
5:55 PM,28.4,19.4,69,30.46,10.0,SE,3.5,-,N/A,,Clear,140,2014-01-24 00:55:00
6:15 PM,26.6,19.4,74,30.47,10.0,SE,5.8,-,N/A,,Clear,140,2014-01-24 01:15:00
6:35 PM,26.6,19.4,74,30.47,10.0,SE,4.6,-,N/A,,Clear,140,2014-01-24 01:35:00
6:55 PM,26.6,19.4,74,30.48,10.0,SSE,3.5,-,N/A,,Clear,150,2014-01-24 01:55:00
7:15 PM,26.6,19.4,74,30.49,10.0,ESE,3.5,-,N/A,,Clear,120,2014-01-24 02:15:00
7:35 PM,24.8,17.6,74,30.48,10.0,SSE,4.6,-,N/A,,Clear,150,2014-01-24 02:35:00
7:55 PM,23.0,21.2,93,30.49,10.0,Calm,Calm,-,N/A,,Clear,0,2014-01-24 02:55:00
8:15 PM,23.0,19.4,86,30.50,10.0,Calm,Calm,-,N/A,,Clear,0,2014-01-24 03:15:00
8:35 PM,23.0,17.6,80,30.51,10.0,Calm,Calm,-,N/A,,Clear,0,2014-01-24 03:35:00
8:55 PM,23.0,19.4,86,30.52,10.0,SSE,4.6,-,N/A,,Clear,150,2014-01-24 03:55:00
9:15 PM,23.0,19.4,86,30.52,10.0,Calm,Calm,-,N/A,,Clear,0,2014-01-24 04:15:00
9:35 PM,23.0,19.4,86,30.53,10.0,Calm,Calm,-,N/A,,Clear,0,2014-01-24 04:35:00
9:55 PM,19.4,17.6,93,30.54,10.0,SSE,4.6,-,N/A,,Clear,160,2014-01-24 04:55:00
10:15 PM,19.4,15.8,86,30.54,10.0,Calm,Calm,-,N/A,,Clear,0,2014-01-24 05:15:00
10:35 PM,21.2,17.6,86,30.55,10.0,ENE,3.5,-,N/A,,Clear,60,2014-01-24 05:35:00
10:55 PM,19.4,17.6,93,30.56,10.0,Calm,Calm,-,N/A,,Clear,0,2014-01-24 05:55:00
11:15 PM,19.4,15.8,86,30.56,10.0,Calm,Calm,-,N/A,,Clear,0,2014-01-24 06:15:00
11:35 PM,19.4,17.6,93,30.56,10.0,Calm,Calm,-,N/A,,Clear,0,2014-01-24 06:35:00
11:55 PM,19.4,17.6,93,30.57,10.0,Calm,Calm,-,N/A,,Clear,0,2014-01-24 06:55:00